Zurück zum Katalog

THOR ABLESTAR DEB

AktivLEO
NORAD 325·DEBRIS·🇺🇸 United States

Gestartet Jun 29, 1961 von Cape Canaveral Space Force Station

Loading…

Nächste Überflüge (nächste 24 Stunden)

TLE

AktuellSource: Space-Track

Epoche: Sep 13, 2026, 08:08 UTC

1 00325U 61015DB  26256.33950798  .00000682  00000-0  33134-3 0  9991
2 00325  66.9123 237.6067 0059828 317.5736  42.0742 14.23247520345702

Verfolge THOR ABLESTAR DEB in Echtzeit mit AllMySat

Download on the App Store